DW7854 Weather Reports


Display with metric or nautical units.
time (UTC)temp
F
wind
direction
speed
MPH
gust
MPH
rain 1hr
in
rain 24hr
in
rain mn
in
humidity
%
barometer
mb
20260509074603 64 71 0.0 2.0 0.00 0.00 0.00 88 1009.0
20260509073836 64 43 1.0 3.0 0.00 0.00 0.00 88 1008.9
20260509073006 64 5 1.0 4.0 0.00 0.00 0.00 88 1009.0
20260509072936 64 16 1.0 4.0 0.00 0.00 0.00 88 1008.8
20260509072036 64 30 1.0 4.0 0.00 0.00 0.00 88 1009.0
20260509071605 64 355 1.0 3.0 0.00 0.00 0.00 88 1009.3
20260509070236 64 24 0.0 2.0 0.00 0.00 0.00 88 1009.2
20260509070004 63 23 0.0 1.0 0.00 0.00 0.00 88 1009.4
20260509065336 64 27 0.0 3.0 0.00 0.00 0.00 88 1009.3
20260509064509 63 55 0.0 1.0 0.00 0.00 0.00 88 1009.8
20260509064436 64 22 0.0 1.0 0.00 0.00 0.00 88 1009.5
20260509063008 63 23 1.0 4.0 0.00 0.00 0.00 88 1010.0
20260509062636 64 2 1.0 4.0 0.00 0.00 0.00 89 1009.9
20260509061736 64 5 0.0 1.0 0.00 0.00 0.00 88 1010.4
20260509061510 63 5 0.0 2.0 0.00 0.00 0.00 88 1010.6
20260509060836 64 5 0.0 2.0 0.00 0.00 0.00 88 1010.5
20260509060104 63 5 0.0 2.0 0.00 0.00 0.00 88 1010.8
20260509055936 64 357 0.0 3.0 0.00 0.00 0.00 88 1010.6
20260509054508 63 18 0.0 3.0 0.00 0.00 0.00 87 1010.6
20260509054136 64 12 1.0 4.0 0.00 0.00 0.00 87 1010.3
20260509053236 64 34 2.0 4.0 0.00 0.00 0.00 87 1009.9
20260509053008 64 355 2.0 4.0 0.00 0.00 0.00 87 1010.2
20260509052336 64 36 1.0 5.0 0.00 0.00 0.00 87 1010.0
20260509051609 64 29 1.0 4.0 0.00 0.00 0.00 87 1010.2
20260509051436 64 356 2.0 5.0 0.00 0.00 0.00 87 1010.0
20260509050536 64 114 1.0 5.0 0.00 0.00 0.00 87 1009.9
20260509050015 64 138 0.0 1.0 0.00 0.00 0.00 86 1009.8
20260509045636 64 138 0.0 1.0 0.00 0.00 0.00 86 1009.4
20260509044736 64 78 0.0 3.0 0.00 0.00 0.00 86 1009.2
20260509044509 64 145 0.0 3.0 0.00 0.00 0.00 86 1009.3
20260509043104 65 47 0.0 3.0 0.00 0.00 0.00 86 1010.1
20260509042936 65 353 1.0 3.0 0.00 0.00 0.00 85 1009.9
20260509042036 66 24 0.0 2.0 0.00 0.00 0.00 85 1009.9
20260509041604 65 90 0.0 2.0 0.00 0.00 0.00 84 1010.4
20260509041136 66 90 0.0 2.0 0.00 0.00 0.00 84 1010.3
20260509040236 67 0 0.0 0.0 0.00 0.00 0.00 83 1010.3
20260509040005 66 131 0.0 0.0 0.00 0.00 0.00 82 1010.5
20260509035336 67 130 0.0 1.0 0.00 0.00 0.00 82 1010.4
20260509034506 67 131 0.0 1.0 0.00 0.00 0.00 81 1011.0
20260509034436 67 111 0.0 1.0 0.00 0.00 0.00 81 1010.7
20260509033536 67 354 0.0 3.0 0.00 0.00 0.00 82 1010.5
20260509033004 67 355 0.0 5.0 0.00 0.00 0.00 82 1010.8
20260509032636 67 342 3.0 7.0 0.00 0.00 0.00 82 1010.6
20260509031736 67 341 3.0 6.0 0.00 0.00 0.00 81 1010.0
20260509031611 67 355 3.0 6.0 0.00 0.00 0.00 81 1010.2
20260509030836 67 1 2.0 5.0 0.00 0.00 0.00 80 1009.6
20260509030115 67 360 0.0 3.0 0.00 0.00 0.00 80 1009.4
20260509025936 68 32 1.0 3.0 0.00 0.00 0.00 80 1009.2
20260509025036 68 106 0.0 3.0 0.00 0.00 0.00 79 1008.9
20260509024503 67 115 0.0 3.0 0.00 0.00 0.00 80 1008.7
20260509024136 68 148 1.0 3.0 0.00 0.00 0.00 80 1008.3
20260509023236 68 166 1.0 4.0 0.00 0.00 0.00 80 1008.6
20260509023117 67 176 0.0 4.0 0.00 0.00 0.00 80 1008.9
20260509022336 68 161 3.0 6.0 0.00 0.00 0.00 80 1008.4
20260509021509 67 150 3.0 6.0 0.00 0.00 0.00 81 1008.2
20260509021436 68 163 3.0 6.0 0.00 0.00 0.00 81 1007.9
20260509015636 69 220 0.0 1.0 0.00 0.00 0.00 78 1008.4
20260509014609 69 219 0.0 1.0 0.00 0.00 0.00 78 1008.7
20260509013836 70 336 0.0 2.0 0.00 0.00 0.00 77 1008.3
20260509013008 70 346 0.0 1.0 0.00 0.00 0.00 76 1008.5
20260509012936 71 346 0.0 1.0 0.00 0.00 0.00 76 1008.2
20260509012036 71 346 0.0 1.0 0.00 0.00 0.00 75 1008.0
20260509011605 71 346 0.0 1.0 0.00 0.00 0.00 75 1008.3
20260509011136 72 346 0.0 1.0 0.00 0.00 0.00 75 1008.0
20260509010236 72 346 0.0 1.0 0.00 0.00 0.00 73 1007.8
20260509010104 72 346 0.0 1.0 0.00 0.00 0.00 73 1008.0
20260509005336 72 64 0.0 1.0 0.00 0.00 0.00 72 1007.6
20260509004503 72 12 0.0 2.0 0.00 0.00 0.00 72 1007.5
20260509004436 73 22 1.0 2.0 0.00 0.00 0.00 72 1007.2
20260509003106 73 32 0.0 1.0 0.00 0.00 0.00 71 1007.2
20260509002635 74 74 0.0 2.0 0.00 0.00 0.00 71 1007.1
20260509001736 74 110 0.0 2.0 0.00 0.00 0.00 70 1007.3
20260509001605 73 97 0.0 2.0 0.00 0.00 0.00 70 1007.7
20260509000836 74 72 0.0 3.0 0.00 0.00 0.00 70 1007.6
20260509000005 74 77 1.0 3.0 0.00 0.00 0.00 68 1008.1
20260508235936 74 100 1.0 3.0 0.00 0.00 0.00 68 1007.8
20260508235036 75 110 2.0 4.0 0.00 0.00 0.00 67 1007.9
20260508234603 74 136 1.0 4.0 0.00 0.00 0.00 67 1008.3
20260508233104 74 159 1.0 3.0 0.00 0.00 0.00 66 1008.8
20260508232336 75 144 1.0 3.0 0.00 0.00 0.00 66 1008.7
20260508231609 75 150 0.0 5.0 0.00 0.00 0.00 64 1009.0
20260508230536 76 109 1.0 3.0 0.00 0.00 0.00 64 1008.6
20260508230128 76 88 0.0 3.0 0.00 0.00 0.00 62 1009.0
20260508225636 76 186 1.0 3.0 0.00 0.00 0.00 63 1008.9
20260508224736 76 136 1.0 3.0 0.00 0.00 0.00 62 1008.8
20260508224503 76 92 0.0 4.0 0.00 0.00 0.00 61 1009.1
20260508223836 77 148 2.0 4.0 0.00 0.00 0.00 61 1008.9
20260508223007 76 151 2.0 5.0 0.00 0.00 0.00 60 1009.1
20260508222936 77 154 2.0 5.0 0.00 0.00 0.00 60 1008.8
20260508222036 77 159 3.0 7.0 0.00 0.00 0.00 61 1008.7
20260508221508 76 133 2.0 8.0 0.00 0.00 0.00 63 1009.0
20260508221135 77 156 4.0 8.0 0.00 0.00 0.00 61 1008.7
20260508220236 77 152 3.0 7.0 0.00 0.00 0.00 61 1008.6
20260508220011 76 173 1.0 7.0 0.00 0.00 0.00 58 1008.8
20260508215335 76 99 3.0 9.0 0.00 0.00 0.00 60 1008.5
20260508214504 77 109 2.0 6.0 0.00 0.00 0.00 56 1008.9
20260508214435 77 149 4.0 8.0 0.00 0.00 0.00 56 1008.6
20260508213536 77 147 4.0 8.0 0.00 0.00 0.00 59 1008.8
20260508213004 77 143 2.0 7.0 0.00 0.00 0.00 59 1009.1
20260508212636 77 143 4.0 7.0 0.00 0.00 0.00 58 1008.9
20260508211735 77 141 4.0 8.0 0.00 0.00 0.00 60 1008.9
20260508211605 76 149 2.0 8.0 0.00 0.00 0.00 61 1009.2
20260508210835 76 119 4.0 8.0 0.00 0.00 0.00 60 1009.0
20260508210105 77 103 4.0 7.0 0.00 0.00 0.00 58 1009.2
20260508205036 78 175 4.0 11.0 0.00 0.00 0.00 57 1009.1
20260508204508 77 173 3.0 10.0 0.00 0.00 0.00 57 1009.5
20260508204135 77 142 4.0 8.0 0.00 0.00 0.00 57 1009.2
20260508203235 77 172 3.0 7.0 0.00 0.00 0.00 58 1009.3
20260508203005 77 127 0.0 7.0 0.00 0.00 0.00 61 1009.6
20260508202335 77 162 4.0 8.0 0.00 0.00 0.00 61 1009.5
20260508201604 76 140 4.0 8.0 0.00 0.00 0.00 63 1009.9
20260508201436 76 146 2.0 7.0 0.00 0.00 0.00 61 1009.7
20260508200535 77 159 5.0 9.0 0.00 0.00 0.00 61 1009.9
20260508200008 76 150 6.0 10.0 0.00 0.00 0.00 60 1010.3
20260508194735 76 161 4.0 11.0 0.00 0.00 0.00 60 1010.2
20260508194505 76 165 2.0 11.0 0.00 0.00 0.00 60 1010.6
20260508193835 76 160 4.0 11.0 0.00 0.00 0.00 62 1010.5
20260508193107 76 195 3.0 10.0 0.00 0.00 0.00 61 1010.9
20260508192935 76 153 5.0 10.0 0.00 0.00 0.00 58 1010.7
20260508191604 75 168 3.0 8.0 0.00 0.00 0.00 61 1011.1
20260508190235 74 37 1.0 5.0 0.00 0.00 0.00 66 1011.0
20260508190004 74 355 0.0 5.0 0.00 0.00 0.00 63 1011.3
20260508185335 74 105 2.0 7.0 0.00 0.00 0.00 65 1011.2
20260508184505 73 103 1.0 6.0 0.00 0.00 0.00 66 1011.5
20260508184435 73 52 2.0 5.0 0.00 0.00 0.00 65 1011.2
20260508183535 73 78 2.0 7.0 0.00 0.00 0.00 66 1011.4
20260508183008 72 42 3.0 7.0 0.00 0.00 0.00 66 1011.8
20260508182635 72 33 3.0 5.0 0.00 0.00 0.00 66 1011.6
20260508181735 74 156 3.0 7.0 0.00 0.00 0.00 63 1011.9
20260508181505 73 185 3.0 6.0 0.00 0.00 0.00 65 1012.2
20260508180835 74 187 3.0 9.0 0.00 0.00 0.00 64 1012.0
20260508180109 73 144 4.0 9.0 0.00 0.00 0.00 66 1012.6
20260508175935 74 165 4.0 9.0 0.00 0.00 0.00 65 1012.5
20260508175035 74 167 5.0 11.0 0.00 0.00 0.00 65 1012.6
20260508174622 72 159 3.0 11.0 0.00 0.00 0.00 66 1013.0
20260508174135 73 158 4.0 10.0 0.00 0.00 0.00 67 1012.7
20260508173004 71 101 3.0 9.0 0.00 0.00 0.00 66 1013.1
20260508172336 71 174 4.0 9.0 0.00 0.00 0.00 67 1013.1
20260508171509 69 152 3.0 8.0 0.00 0.00 0.00 69 1013.4
20260508171435 70 136 3.0 8.0 0.00 0.00 0.00 69 1013.1
20260508170535 69 122 3.0 8.0 0.00 0.00 0.00 69 1013.1
20260508170106 69 140 2.0 8.0 0.00 0.00 0.00 72 1013.5
20260508164735 69 153 2.0 8.0 0.00 0.00 0.00 74 1013.6
20260508164604 68 184 2.0 6.0 0.00 0.00 0.00 75 1013.9
20260508163835 68 161 2.0 6.0 0.00 0.00 0.00 71 1013.5
20260508163106 67 189 2.0 6.0 0.00 0.00 0.00 74 1013.8
20260508162935 67 159 2.0 6.0 0.00 0.00 0.00 74 1013.5
20260508162035 67 167 2.0 6.0 0.00 0.00 0.00 73 1014.0
20260508161605 66 160 1.0 5.0 0.00 0.00 0.00 76 1014.1
20260508161135 66 127 2.0 5.0 0.00 0.00 0.00 75 1013.7
20260508160235 66 149 4.0 8.0 0.00 0.00 0.00 73 1013.8
20260508160105 66 142 4.0 8.0 0.00 0.00 0.00 73 1014.1
20260508155335 66 142 3.0 7.0 0.00 0.00 0.00 73 1014.0
20260508154607 66 164 2.0 6.0 0.00 0.00 0.00 77 1014.5
20260508154435 66 134 3.0 7.0 0.00 0.00 0.00 76 1014.1
20260508153535 66 152 3.0 5.0 0.00 0.00 0.00 76 1014.0
20260508153104 65 191 3.0 6.0 0.00 0.00 0.00 77 1014.3
20260508152635 65 145 2.0 5.0 0.00 0.00 0.00 80 1014.0
20260508151735 64 125 2.0 4.0 0.00 0.00 0.00 80 1013.8
20260508151503 63 106 1.0 4.0 0.00 0.00 0.00 80 1014.0
20260508150835 63 106 2.0 5.0 0.00 0.00 0.00 81 1013.8
20260508150010 62 28 0.0 5.0 0.00 0.00 0.00 82 1014.2
20260508145935 63 98 2.0 5.0 0.00 0.00 0.00 82 1013.9
20260508144505 61 138 1.0 4.0 0.00 0.00 0.00 83 1014.6
20260508144135 62 102 2.0 3.0 0.00 0.00 0.00 84 1014.2
20260508143235 61 99 1.0 3.0 0.00 0.00 0.00 84 1014.3
20260508143104 60 65 1.0 3.0 0.00 0.00 0.00 85 1014.6
20260508142335 60 18 1.0 3.0 0.00 0.00 0.00 85 1014.5
20260508141509 59 22 1.0 3.0 0.00 0.00 0.00 87 1014.6
20260508140535 59 135 1.0 5.0 0.00 0.00 0.00 90 1014.2
20260508135635 58 123 1.0 3.0 0.00 0.00 0.00 92 1014.6
20260508134617 57 133 1.0 3.0 0.00 0.00 0.00 93 1015.0
20260508133835 58 167 2.0 3.0 0.00 0.00 0.00 94 1015.1
20260508133003 57 148 2.0 3.0 0.00 0.00 0.00 94 1015.5
20260508132935 57 132 1.0 3.0 0.00 0.00 0.00 94 1015.2
20260508131605 56 336 0.0 3.0 0.00 0.00 0.00 94 1015.4
20260508131135 56 321 1.0 2.0 0.00 0.00 0.00 94 1014.6
20260508130235 56 226 1.0 2.0 0.00 0.00 0.00 94 1014.7
20260508130005 55 158 0.0 2.0 0.00 0.00 0.00 94 1015.0
20260508125335 56 334 0.0 2.0 0.00 0.00 0.00 94 1014.9
20260508124511 55 13 0.0 2.0 0.00 0.00 0.00 94 1015.3
20260508123535 55 26 0.0 1.0 0.00 0.00 0.00 95 1014.6
20260508123009 54 45 0.0 3.0 0.00 0.00 0.00 94 1014.9
20260508122635 55 9 1.0 3.0 0.00 0.00 0.00 94 1014.5
20260508121505 54 236 0.0 1.0 0.00 0.00 0.00 94 1014.7
20260508120835 54 188 1.0 2.0 0.00 0.00 0.00 94 1014.3
20260508120004 54 173 0.0 2.0 0.00 0.00 0.00 94 1014.6
20260508115935 54 315 1.0 3.0 0.00 0.00 0.00 94 1014.2
20260508114504 54 355 0.0 3.0 0.00 0.00 0.00 95 1014.4
20260508114135 54 7 1.0 4.0 0.00 0.00 0.00 95 1013.7
20260508113235 54 12 1.0 4.0 0.00 0.00 0.00 95 1013.6
20260508113106 54 5 2.0 4.0 0.00 0.00 0.00 95 1014.0
20260508112335 54 17 1.0 4.0 0.00 0.00 0.00 95 1014.1
20260508111604 54 138 0.0 2.0 0.00 0.00 0.00 95 1014.8
20260508111435 54 8 0.0 2.0 0.00 0.00 0.00 95 1014.5
20260508105635 54 6 1.0 2.0 0.00 0.00 0.00 95 1014.7
20260508104735 54 24 1.0 2.0 0.00 0.00 0.00 95 1014.7
20260508104607 54 5 0.0 2.0 0.00 0.00 0.00 95 1015.1
20260508103004 54 33 1.0 2.0 0.00 0.00 0.00 95 1014.5
20260508102935 54 30 1.0 2.0 0.00 0.00 0.00 95 1014.1
20260508102035 54 21 1.0 3.0 0.00 0.00 0.00 95 1014.1
20260508101508 53 355 1.0 5.0 0.00 0.00 0.00 96 1014.5
20260508101135 54 9 1.0 5.0 0.00 0.00 0.00 95 1014.0
20260508100235 54 1 0.0 1.0 0.00 0.00 0.00 95 1014.0
20260508100105 53 360 0.0 0.0 0.00 0.00 0.00 95 1014.4
20260508095335 54 3 0.0 2.0 0.00 0.00 0.00 95 1014.3
20260508094503 53 360 0.0 2.0 0.00 0.00 0.00 95 1014.4
20260508093535 53 47 0.0 3.0 0.00 0.00 0.00 95 1013.9
20260508093104 53 120 0.0 0.0 0.00 0.00 0.00 95 1014.4
20260508092635 53 0 0.0 0.0 0.00 0.00 0.00 95 1014.2
20260508091735 53 0 0.0 0.0 0.00 0.00 0.00 95 1014.1
20260508091605 52 120 0.0 0.0 0.00 0.00 0.00 95 1014.5
20260508090835 53 0 0.0 0.0 0.00 0.00 0.00 95 1013.8
20260508090106 52 120 0.0 0.0 0.00 0.00 0.00 95 1014.3
20260508085935 52 0 0.0 0.0 0.00 0.00 0.00 95 1013.9
20260508085035 52 0 0.0 0.0 0.00 0.00 0.00 94 1014.0
20260508084504 52 120 0.0 0.0 0.00 0.00 0.00 94 1014.5
20260508083235 52 0 0.0 0.0 0.00 0.00 0.00 94 1014.3
20260508083104 52 120 0.0 0.0 0.00 0.00 0.00 94 1014.7
20260508082335 52 0 0.0 0.0 0.00 0.00 0.00 94 1014.2
20260508081508 52 120 0.0 0.0 0.00 0.00 0.00 94 1014.5
20260508081435 52 0 0.0 0.0 0.00 0.00 0.00 94 1014.0
20260508080535 52 0 0.0 0.0 0.00 0.00 0.00 94 1014.0
20260508080010 52 120 0.0 0.0 0.00 0.00 0.00 93 1014.5
20260508075635 53 0 0.0 0.0 0.00 0.00 0.00 93 1014.2